Terug naar catalogus

USA 325

ActiefNavigatieGEO
NORAD 51281·PAYLOAD·🇺🇸 United States

Gelanceerd Jan 21, 2022 vanaf Cape Canaveral Space Force Station

Loading…

TLE

VerouderdSource: Space-Track

Epoch: Jan 6, 2026, 17:01 UTC

1 51281U 22006B   26006.70962434 -.00000360  00000-0  00000+0 0  9995
2 51281   0.1656  83.9928 0022746 181.1199 218.2610  1.00266333 14512

Volg USA 325 in realtime met AllMySat

Download on the App Store